カタログに戻る

RASSVET-2 NO. 2

運用中通信SSO
NORAD 59780·PAYLOAD·🇷🇺 Russia
この衛星名は、まだ公式ソースで確認されていません。

打ち上げ May 16, 2024 から Plesetsk Cosmodrome

Loading…

次のパス (今後24時間)

TLE

最新Source: Space-Track

元期: Sep 14, 2026, 22:47 UTC

1 59780U 24092H   26257.94943861  .00000128  00000-0  64492-4 0  9992
2 59780  98.6796  16.9296 0011299 309.0562  50.9615 14.31875461121747

AllMySatでRASSVET-2 NO. 2をリアルタイム追跡

Download on the App Store